Wind_Speed
53 52 52 52 53 53 53 52 52 51 50 50 50 49 49 49 49 49 48 48 48 47 47 46 46 46 46 46 46 46 46 45 45 45 45 45 46 46
54 54 54 54 54 55 55 54 54 53 53 52 52 51 51 51 51 50 50 49 49 49 49 49 49 49 48 48 48 48 48 47 47 47 47 48 48 48
55 55 55 55 55 56 56 56 56 56 55 54 54 54 54 53 53 52 52 51 51 51 52 52 51 51 51 50 50 50 50 50 50 50 50 50 50 50
56 56 57 56 56 56 57 57 57 57 57 56 55 55 55 55 55 54 53 53 53 52 52 53 53 53 53 52 52 52 52 52 52 52 52 52 51 52
56 57 57 57 57 56 57 58 59 58 58 58 57 56 56 56 55 55 55 54 54 54 54 54 54 54 54 55 54 53 54 54 54 54 54 54 53 54
55 56 57 57 57 56 56 57 58 59 59 59 58 58 58 58 58 57 57 56 56 55 56 55 55 55 55 55 55 55 55 55 55 55 55 55 56 56
56 57 57 57 57 57 56 56 58 58 59 59 59 59 59 60 59 58 58 57 57 56 56 56 56 56 56 56 56 56 56 57 57 57 57 57 57 57
56 56 56 57 57 56 56 55 56 56 57 58 58 58 59 59 59 59 58 58 58 57 56 56 56 57 57 58 57 57 57 58 58 58 58 59 59 59
54 54 54 55 55 56 56 55 55 55 55 56 57 57 58 59 59 59 59 58 58 57 57 57 58 57 58 58 59 59 59 59 59 58 59 59 60 60
53 53 53 54 55 56 56 55 55 55 56 56 56 56 57 58 59 59 59 59 59 59 59 59 59 59 59 59 59 60 61 61 61 61 61 61 61 61
54 54 53 53 54 55 56 56 55 56 56 56 56 56 56 57 58 59 59 60 60 60 60 60 60 61 61 61 61 61 61 62 62 63 64 63 63 62
54 54 54 54 54 54 55 55 55 55 55 55 56 56 57 58 58 59 59 59 59 60 60 60 61 62 61 62 62 62 63 63 63 63 63 64 64 64
53 54 54 54 54 54 55 55 55 55 55 55 56 57 58 58 58 58 59 60 59 59 59 60 61 61 62 62 62 62 62 63 63 63 64 64 65 65
51 52 53 53 53 53 53 54 54 54 54 55 56 56 57 57 58 58 59 60 60 60 60 60 61 61 61 61 61 61 61 62 62 63 63 63 64 64
50 50 51 52 52 52 52 53 54 54 56 56 56 56 56 56 57 58 59 60 60 60 61 61 61 60 60 60 59 60 60 60 60 61 61 62 62 63
49 49 50 50 50 50 50 51 51 53 53 53 53 54 54 55 55 56 57 58 58 59 59 59 58 58 58 58 58 58 58 58 58 59 60 60 60 61
47 47 48 49 49 50 49 49 50 50 50 51 51 51 52 52 53 54 54 55 55 55 56 56 56 56 56 56 56 56 56 57 57 57 57 57 59 60
46 46 46 47 48 49 49 49 49 48 48 48 49 50 50 50 50 51 51 52 52 53 53 54 54 54 55 55 56 55 56 56 56 56 56 56 56 57
45 45 45 46 46 47 48 48 48 46 46 46 47 47 48 48 48 49 49 49 50 50 51 52 53 54 54 53 53 54 54 54 55 55 55 55 55 55
43 44 44 44 44 45 45 45 45 44 44 44 45 45 46 46 46 46 46 47 47 48 48 50 51 52 53 53 52 53 54 54 54 54 54 53 53 52
42 42 42 41 42 43 43 43 44 44 43 43 43 44 44 44 44 44 44 45 45 46 46 47 49 50 52 52 52 52 53 54 53 53 52 52 52 52
40 40 40 40 40 40 41 42 43 43 44 44 44 43 43 43 43 43 44 44 44 45 46 46 48 49 50 50 50 50 51 52 52 53 53 53 52 51
39 39 39 39 39 39 39 39 40 40 41 42 43 43 43 43 43 44 44 44 44 45 46 46 47 48 49 49 50 50 50 51 51 52 52 52 52 52
Wind_Direction
250 251 252 253 254 255 256 256 257 256 256 256 257 256 256 257 258 259 258 258 259 259 260 261 263 265 266 267 268 268 269 269 271 272 273 273 274 275
251 252 253 254 254 255 255 256 256 256 256 255 256 256 257 258 259 260 260 260 261 261 262 263 264 265 266 266 267 268 269 269 270 272 273 274 274 275
252 253 254 255 255 256 256 257 257 257 256 255 255 256 256 258 259 259 259 260 262 263 263 263 264 265 265 266 267 268 269 270 270 272 273 273 274 276
253 253 254 255 256 256 257 256 256 256 256 255 255 256 256 257 258 259 260 260 261 263 263 264 264 265 265 265 266 268 269 270 271 272 273 273 275 276
254 254 255 256 256 256 257 257 256 255 256 256 255 255 255 256 257 259 260 261 261 262 263 264 265 266 266 266 266 268 268 269 270 272 272 273 274 276
254 255 255 256 256 257 257 257 256 255 255 255 255 255 256 256 257 259 260 261 261 262 263 263 265 266 267 266 266 267 268 269 270 271 272 273 275 276
255 255 255 255 256 256 257 257 257 256 256 256 255 256 256 257 257 258 259 260 260 261 263 263 264 265 266 266 267 268 269 270 271 272 273 274 275 277
256 256 255 255 255 256 257 257 256 256 256 256 256 256 256 256 257 258 259 259 260 261 262 263 264 265 266 266 267 268 270 270 271 272 273 274 276 277
255 256 256 256 256 256 256 256 257 256 256 256 256 256 256 256 257 258 258 259 260 261 262 263 264 265 267 268 269 270 270 271 272 273 274 275 276 277
254 255 256 256 255 255 255 257 257 257 256 257 257 257 257 257 257 257 257 259 260 261 262 263 265 266 267 268 270 271 271 271 272 273 275 276 276 277
254 255 256 256 255 255 255 256 256 257 256 257 257 258 258 259 259 259 259 260 260 261 262 263 264 266 267 268 270 271 272 272 272 273 274 275 276 276
254 254 255 254 255 255 255 255 256 257 257 257 258 259 259 260 260 260 261 261 261 262 262 264 265 266 267 268 270 271 272 273 274 274 275 276 277 277
255 254 254 254 255 255 255 256 256 257 257 258 258 259 260 260 260 260 261 261 262 262 263 264 266 267 268 269 270 271 272 273 274 275 276 278 278 278
255 254 254 255 255 256 256 256 257 257 258 258 259 259 260 260 260 260 261 261 261 262 263 265 266 267 268 269 271 272 273 274 275 276 277 278 278 278
254 254 254 255 256 257 258 259 258 258 259 259 260 260 260 260 261 261 261 262 262 262 263 265 266 267 268 269 270 272 273 274 276 277 278 278 279 279
254 254 254 254 255 256 257 258 259 259 260 260 260 260 260 261 261 261 261 262 263 263 264 265 266 267 268 269 271 272 274 274 275 277 278 279 279 279
255 255 254 254 255 256 257 258 259 260 260 260 260 260 260 261 261 262 262 263 263 263 264 264 265 266 267 269 271 272 274 275 276 277 278 279 279 280
255 255 255 255 255 255 255 257 258 259 259 260 260 260 261 262 262 262 262 263 263 263 264 264 265 266 268 269 271 273 274 275 276 278 279 279 279 280
256 255 255 256 256 256 256 257 258 258 258 259 259 260 261 262 262 262 263 264 263 263 264 265 266 266 268 269 271 273 274 275 276 278 279 279 280 280
255 255 255 256 256 256 256 256 256 257 258 259 260 261 262 263 263 263 264 264 264 265 265 266 267 268 270 271 272 273 275 276 277 278 279 279 280 280
255 255 256 255 256 256 255 255 255 256 258 259 260 261 262 263 263 264 264 265 265 266 266 267 269 270 272 273 274 274 276 276 277 278 278 279 280 281
255 256 256 255 255 255 255 255 256 257 258 258 260 261 262 263 263 264 265 266 267 268 268 270 271 272 273 274 275 275 275 276 277 278 279 280 280 280
256 255 255 255 254 254 255 255 256 257 258 259 260 261 262 263 264 265 266 268 268 269 270 271 273 274 274 275 275 275 276 277 278 279 280 281 281 281
Height
5679 5682 5685 5687 5690 5692 5695 5697 5700 5702 5705 5706 5708 5710 5711 5713 5715 5716 5718 5719 5720 5722 5723 5724 5724 5725 5725 5726 5726 5726 5726 5726 5726 5725 5725 5724 5723 5722
5665 5668 5671 5673 5676 5678 5681 5683 5685 5688 5691 5694 5695 5697 5698 5700 5701 5703 5705 5707 5708 5709 5710 5711 5712 5712 5713 5713 5714 5714 5714 5714 5713 5713 5712 5711 5710 5709
5650 5653 5656 5659 5661 5664 5666 5668 5671 5673 5676 5679 5681 5682 5684 5686 5688 5690 5691 5693 5695 5696 5697 5698 5698 5699 5700 5700 5700 5701 5701 5700 5700 5700 5699 5698 5697 5696
5635 5638 5641 5643 5646 5648 5651 5653 5656 5658 5661 5664 5666 5668 5670 5672 5674 5676 5678 5679 5681 5682 5683 5684 5684 5685 5686 5686 5687 5687 5687 5687 5686 5686 5685 5684 5683 5681
5620 5623 5626 5628 5631 5633 5635 5638 5640 5643 5645 5648 5651 5653 5655 5657 5660 5662 5664 5665 5667 5668 5669 5669 5670 5671 5671 5672 5672 5672 5672 5672 5672 5671 5670 5669 5668 5666
5605 5607 5610 5613 5615 5618 5620 5622 5624 5627 5629 5632 5635 5638 5640 5642 5644 5647 5649 5650 5652 5653 5654 5655 5655 5656 5657 5657 5658 5658 5657 5657 5657 5656 5655 5654 5653 5652
5589 5592 5594 5597 5600 5602 5604 5607 5609 5611 5613 5616 5619 5622 5624 5626 5629 5631 5633 5635 5636 5637 5639 5640 5641 5642 5641 5642 5642 5642 5642 5642 5641 5641 5640 5639 5638 5636
5574 5576 5579 5581 5584 5586 5588 5590 5593 5595 5597 5600 5603 5605 5608 5610 5612 5614 5617 5619 5622 5624 5623 5624 5625 5626 5626 5626 5626 5626 5626 5626 5625 5624 5623 5622 5621 5619
5558 5561 5563 5565 5567 5570 5572 5574 5577 5579 5582 5584 5587 5589 5592 5595 5597 5599 5600 5602 5605 5606 5607 5609 5609 5610 5610 5610 5609 5610 5609 5609 5609 5608 5607 5605 5604 5602
5543 5545 5548 5550 5552 5554 5557 5559 5561 5564 5566 5569 5572 5574 5575 5577 5579 5582 5583 5585 5588 5589 5590 5592 5593 5593 5594 5593 5593 5593 5592 5592 5592 5591 5590 5588 5586 5584
5528 5530 5532 5534 5537 5539 5541 5544 5546 5548 5550 5552 5555 5557 5559 5561 5563 5564 5566 5568 5571 5572 5573 5575 5576 5577 5577 5577 5576 5575 5575 5575 5574 5573 5572 5570 5568 5567
5513 5515 5517 5519 5521 5523 5525 5528 5531 5533 5534 5537 5539 5541 5543 5545 5546 5548 5550 5551 5553 5555 5556 5557 5558 5559 5560 5561 5560 5559 5558 5557 5556 5555 5553 5551 5550 5548
5497 5500 5502 5504 5506 5508 5510 5513 5515 5517 5519 5521 5523 5525 5527 5528 5530 5531 5533 5535 5536 5538 5540 5540 5541 5541 5542 5544 5543 5541 5541 5540 5538 5537 5535 5533 5530 5528
5483 5485 5487 5489 5491 5493 5495 5497 5499 5501 5503 5505 5507 5508 5510 5512 5513 5514 5516 5517 5519 5521 5522 5523 5524 5524 5524 5525 5526 5525 5523 5522 5520 5519 5517 5514 5512 5509
5468 5470 5472 5473 5476 5478 5480 5481 5483 5485 5487 5489 5491 5492 5494 5495 5496 5497 5499 5500 5502 5503 5504 5505 5506 5507 5507 5508 5508 5507 5506 5505 5502 5500 5499 5496 5494 5491
5453 5455 5456 5459 5461 5463 5464 5466 5468 5469 5471 5473 5474 5476 5477 5478 5480 5481 5482 5483 5485 5486 5487 5488 5488 5489 5490 5490 5490 5490 5489 5488 5486 5483 5481 5479 5476 5473
5439 5441 5443 5445 5446 5448 5450 5451 5453 5454 5456 5458 5459 5460 5462 5463 5464 5465 5466 5467 5469 5470 5471 5471 5472 5472 5473 5473 5474 5473 5472 5470 5469 5467 5465 5463 5460 5456
5426 5427 5429 5431 5432 5434 5436 5437 5439 5440 5442 5443 5444 5446 5447 5448 5449 5450 5451 5452 5453 5455 5455 5456 5456 5457 5457 5457 5457 5456 5455 5453 5452 5450 5447 5446 5444 5440
5413 5414 5416 5417 5418 5420 5422 5423 5425 5427 5428 5429 5431 5432 5433 5434 5435 5436 5436 5437 5438 5439 5440 5440 5440 5441 5441 5442 5442 5439 5438 5437 5435 5434 5431 5429 5427 5425
5400 5401 5402 5404 5405 5407 5408 5410 5412 5413 5415 5416 5417 5418 5419 5420 5421 5422 5422 5423 5424 5425 5425 5425 5425 5425 5425 5426 5426 5425 5422 5420 5419 5418 5416 5413 5411 5409
5387 5388 5389 5391 5392 5394 5395 5397 5399 5401 5402 5403 5404 5405 5406 5407 5408 5408 5409 5409 5410 5411 5411 5411 5410 5410 5409 5410 5410 5410 5407 5404 5402 5401 5400 5398 5396 5394
5374 5376 5377 5378 5380 5382 5383 5385 5386 5388 5389 5390 5391 5392 5393 5394 5395 5395 5396 5396 5397 5397 5397 5397 5396 5395 5395 5394 5394 5394 5393 5390 5388 5386 5384 5382 5380 5379
5362 5364 5365 5367 5368 5369 5371 5372 5374 5375 5376 5377 5378 5379 5380 5381 5382 5382 5382 5383 5383 5383 5383 5383 5382 5381 5380 5379 5379 5378 5377 5376 5373 5372 5370 5366 5364 5362